Location: Klamath Falls
(42.2250°N, 121.7810°W)
Time: 17:24:08
(UTC-07:00)

Tiangong 2 - Visible Passes

Search period start: 23 March 2019 00:00
Search period end: 02 April 2019 00:00
Orbit: 380 x 390 km, 42.8° (Epoch: 23 March)

Date Brightness Start Highest point End Pass type
(mag) Time Alt. Az. Time Alt. Az. Time Alt. Az.
23 Mar 2.8 06:00:03 18° SW 06:00:18 18° SSW 06:02:33 10° SSE visible
29 Mar 3.7 21:24:33 10° SW 21:25:02 13° SW 21:25:02 13° SW visible
30 Mar 2.6 20:25:36 10° SSW 20:28:00 21° SSE 20:28:57 18° SE visible
31 Mar 1.2 21:01:54 10° WSW 21:04:55 51° SSE 21:04:55 51° SSE visible
01 Apr 1.9 20:02:38 10° SW 20:05:29 33° SSE 20:08:21 10° E visible
01 Apr 2.8 21:38:56 10° W 21:40:44 31° W 21:40:44 31° W visible
